Showing default

LEMUR 2 OBA-NI-JESU, 58902

Orbit data source: Space-Track

LEMUR 2 OBA-NI-JESU, 58902 is an American payload satellite in SSO that was launched on Wed, 31 Jan 2024 UTC via an ELECTRON launch vehicle from the Rocket Lab Launch Complex (RLLC). Payload-class satellites include a variety of spacecraft equipped with specific instruments for various scientific and technological missions. These include communications satellites like Starlink; space stations such as the ISS; scientific satellites like the Hubble; Earth observation satellites from companies like Planet Labs, Umbra, and HawkEye 360; GPS; miniature CubeSats for education and research; and military/defense satellites.

Loading next visibility...
Identifier
58902, 2024-022D
Orbit
SSO
Country
Flag of USUS
Related business
Manufacturer
Spire/Glasgow
Mission
Operational Commercial Early Warn
Bus & Motor
CUBESAT 3U, Unknown motor
Mass
~25 kg wet, ~25 kg dry
Launch date (UTC)
2024-01-31 (2 years ago)
Launch vehicle
ELECTRON
Launch site
Rocket Lab Launch Complex (RLLC)
Object type
Payload
Rocket body
Debris
Shape & HBR
Box + 2 Pan, 0.5 m
Radar Cross Section
0.146 m², Medium (>0.1 m² and < 1m²)

Expand to show TLE details & history
Last TLE update: 18 hours ago

TLE from 18 hours ago
0 LEMUR 2 OBA-NI-JESU
1 58902U 24022D   26072.11831680  .00101709  00000-0  98000-3 0  9997
2 58902  97.4057 290.3534 0004817  60.6183 299.5558 15.66184265118139
Epoch: 2026-03-13T02:50Z
TLE epoch observation values (Epoch: 2026-03-13T02:50:22.571Z)
Latitude
0.00002°
Longitude
77.00091°
Altitude
371.385 km
Speed
7.688 km/s
True Right ascension
19h 21m 24s
True Declination
0° 00' 00"
Sunlit
Object was in daylight at epoch
Visualization orbit readout
Latitude
Unknown
Longitude
Unknown
Altitude
Unknown
Speed
Unknown
Apparent Right ascension
Unknown
Apparent Declination
Unknown
Sunlit
N/A
Visualization observer readout
Local Sidereal Time
01:15:48
Azimuth
Unknown
Elevation
Unknown
Doppler factor
Unknown
Orbital elements
Apogee altitude
369.989 km
Perigee altitude
363.491 km
Semi-major axis
6,744.877 km
Eccentricity
0.00048
Inclination
97.4057°
RAAN
290.3534°
Arg. of periapsis
60.6183°
True anomaly
299.50777°
Mean anomaly
299.5558°
Eccentric anomaly
299.53179°
Mean motion
3.91816 °/min
Orbital period
91.88 mins
BSTAR
0.00098
Loading maneuver chart data...
Computing Atmospheric mass density...
Loading historical data...
Loading historical data...
Loading historical data...
Loading historical data...
Loading historical data...
Loading historical data...
Loading historical data...

Documentation

Showing up to 5 results
|